Lapse_Rate
4.6 4.6 4.7 4.8 4.9 4.9 4.8 4.8 4.7 4.6 4.6 4.7 4.8 4.9 4.9 4.9 4.9 5.2 5.2 5.0 4.8 5.0 4.9 5.1 5.2 4.9 4.9 5.0 6.1 4.7 5.2 5.6 6.1 5.9 5.8 6.1 6.1 6.4 6.3 6.5 6.2 6.1 6.4 6.6 6.8 7.3 7.6
5.2 5.4 5.5 5.4 5.4 5.5 5.5 5.2 5.1 5.1 5.0 5.0 4.9 5.2 5.3 5.3 5.3 5.4 5.3 5.2 5.0 5.2 5.6 5.3 5.4 5.3 5.4 5.7 5.4 5.7 5.4 6.4 6.3 6.0 6.1 5.9 6.2 6.1 5.7 5.9 6.4 6.6 6.5 6.8 7.0 7.2 7.5
5.9 5.9 6.0 5.9 5.9 5.8 5.7 5.7 5.5 5.6 5.5 5.4 5.5 5.3 5.4 5.6 5.7 5.4 5.7 5.4 5.4 5.6 5.9 5.8 5.5 5.8 5.6 6.4 5.8 5.6 5.4 6.0 6.3 6.1 6.3 6.3 6.3 5.8 5.9 5.9 6.4 6.6 6.7 6.7 6.9 7.1 7.2
5.7 5.6 5.6 5.6 5.6 5.6 5.6 5.8 5.6 5.6 5.7 5.7 5.6 5.5 5.5 5.8 5.6 5.8 5.7 5.8 5.7 5.8 6.0 5.9 5.7 5.9 6.4 6.1 6.2 6.4 5.9 6.1 6.0 5.9 6.1 6.3 6.1 5.9 5.7 6.1 6.5 6.8 6.8 6.6 7.0 7.3 7.5
5.7 5.6 5.5 5.5 5.5 5.5 5.5 5.5 5.6 5.6 5.6 5.7 5.6 5.6 5.7 5.7 5.7 5.7 5.9 5.8 5.9 6.0 6.0 5.9 6.0 6.0 6.8 6.8 6.6 6.7 6.5 6.3 6.1 6.1 5.7 6.2 6.2 5.7 5.9 6.1 6.2 6.6 6.4 6.9 7.0 7.3 7.5
6.0 5.8 5.7 5.6 5.6 5.5 5.5 5.5 5.5 5.6 5.6 5.6 5.7 5.8 6.0 5.9 5.9 5.7 6.0 6.2 6.0 6.3 6.1 6.2 6.2 6.2 6.8 6.8 6.7 6.9 6.7 6.6 6.2 6.1 6.1 6.0 6.0 5.8 5.9 6.2 5.6 6.4 6.7 7.0 6.7 8.0 8.2
5.9 5.9 5.8 5.7 5.6 5.7 5.6 5.6 5.5 5.6 5.8 5.8 5.9 5.7 5.9 6.1 6.0 6.0 6.1 6.3 6.1 5.9 6.3 6.7 6.3 7.1 6.7 7.0 7.3 7.3 6.5 5.7 6.2 6.1 6.2 6.0 5.6 5.7 6.2 6.6 6.6 6.8 7.0 7.0 7.0 7.6 8.0
6.4 6.3 6.2 6.2 6.2 6.0 6.0 5.8 5.8 5.8 5.9 6.1 6.1 5.9 6.2 5.9 6.0 6.0 6.2 6.3 6.3 5.6 6.7 6.9 7.0 7.0 7.1 6.8 7.0 7.4 6.5 5.8 6.1 6.2 6.0 5.5 5.3 6.5 6.5 6.5 6.6 6.6 6.8 6.6 6.6 7.5 7.7
6.8 6.8 6.7 6.7 6.7 6.6 6.4 6.2 6.1 6.1 6.1 6.3 6.3 6.1 6.2 6.3 6.0 5.9 6.0 5.9 5.8 6.1 5.8 7.9 7.6 7.5 7.5 7.0 7.2 7.6 6.9 6.0 5.9 5.8 6.0 5.9 6.0 6.1 6.2 6.5 6.5 6.2 6.8 6.7 6.6 7.3 7.4
6.8 6.8 6.8 6.8 7.0 7.0 7.0 7.1 7.0 6.5 6.3 6.4 6.4 6.3 6.5 6.3 6.0 5.8 5.8 6.7 6.8 6.3 6.0 7.6 7.5 7.4 7.7 7.2 6.9 7.2 7.0 6.6 6.1 6.1 6.2 6.1 6.4 6.3 6.4 6.3 6.7 6.0 6.6 6.2 5.8 5.7 5.9
7.0 7.0 7.1 7.3 7.4 7.4 7.6 7.5 7.3 7.0 6.7 6.7 6.6 6.3 6.5 6.3 6.2 6.2 5.7 6.8 6.7 6.4 5.5 7.4 7.2 7.2 7.3 7.2 6.8 6.9 6.8 6.6 6.7 6.5 6.4 6.6 6.5 6.4 6.5 6.8 6.6 6.0 5.7 5.9 5.6 5.5 5.2
7.0 7.1 7.3 7.6 7.6 7.7 7.4 7.2 7.2 7.1 6.6 6.6 6.5 6.3 6.5 6.0 6.9 6.2 6.6 6.6 6.5 6.2 6.5 7.6 7.7 7.4 7.3 7.2 7.2 6.6 6.8 6.9 6.7 6.4 6.4 6.5 6.7 6.6 6.8 6.6 6.4 5.7 5.5 5.8 5.7 5.6 5.5
7.1 7.2 7.3 7.5 7.7 7.7 7.3 7.0 6.9 7.0 6.4 6.1 6.1 5.8 6.4 6.2 6.8 6.4 7.1 6.9 6.4 6.3 8.7 8.2 7.9 7.4 7.4 7.5 7.5 7.0 7.0 6.9 6.9 6.5 6.5 6.8 6.7 7.0 6.9 6.8 6.5 5.7 5.5 5.6 6.0 5.9 5.5
7.0 7.1 7.3 7.4 7.6 7.5 7.2 6.8 6.9 6.8 6.4 5.8 6.0 5.5 5.9 6.3 6.2 6.4 6.5 6.2 6.1 7.8 8.5 8.8 8.1 7.6 7.6 7.7 7.8 7.6 7.2 7.0 6.9 6.8 6.5 6.6 6.7 7.0 7.1 7.1 6.9 6.3 5.8 5.8 6.4 6.2 6.4
7.0 7.1 7.2 7.3 7.4 7.1 6.9 6.6 6.6 6.7 6.3 6.2 5.8 5.5 5.8 6.1 6.2 6.5 6.5 5.8 6.7 8.1 8.1 7.9 7.9 7.8 7.9 8.1 8.1 7.9 7.6 7.6 7.0 7.0 6.6 6.7 6.9 7.2 7.8 7.7 7.0 6.3 5.7 6.3 5.8 5.6 5.6
7.0 6.9 6.9 7.0 7.0 6.7 6.4 6.2 6.1 6.1 6.3 6.4 5.9 5.6 6.3 6.1 6.3 6.0 6.2 5.8 7.5 7.3 7.4 7.3 7.4 7.8 7.9 8.6 8.4 8.2 8.1 7.2 7.0 6.8 6.7 6.7 6.7 7.5 7.8 7.4 7.1 6.7 6.7 6.2 5.8 6.0 6.1
6.8 6.7 6.6 6.8 6.7 6.5 6.3 6.3 6.5 6.9 6.8 6.6 6.1 5.7 6.3 6.4 6.4 5.9 5.6 5.8 7.2 7.7 7.1 7.1 7.2 7.3 7.5 7.7 7.7 8.0 7.7 6.9 6.8 6.6 6.7 6.5 6.3 7.4 7.6 7.5 7.3 6.6 6.2 6.0 6.1 5.9 6.3
6.6 6.4 6.4 6.6 6.5 6.5 6.6 6.6 7.0 7.2 7.5 7.0 6.3 6.3 6.4 6.6 6.3 6.1 6.0 6.0 6.7 7.0 6.9 6.5 6.8 6.8 6.9 7.1 7.2 7.4 7.8 7.0 6.6 6.9 6.8 6.6 6.7 6.8 7.3 7.7 7.6 6.9 6.6 6.0 6.1 6.2 6.3
6.4 6.1 6.2 6.4 6.5 6.5 6.7 6.9 7.3 7.6 7.7 7.0 6.6 6.7 6.6 7.1 6.3 6.3 6.5 6.4 6.5 7.0 6.9 6.8 6.9 7.1 7.1 6.8 6.8 7.2 7.7 6.8 6.7 6.6 6.8 6.7 6.6 6.8 7.2 7.6 7.3 6.4 6.4 6.3 6.1 6.0 5.7
6.3 6.2 6.3 6.5 6.6 6.6 6.8 7.0 7.3 7.6 7.4 6.9 6.5 6.7 6.7 6.6 6.9 6.6 6.5 6.6 6.6 6.9 7.0 6.8 6.8 6.9 7.1 6.9 6.9 7.0 7.4 6.9 6.4 6.5 6.9 6.8 6.7 6.3 6.3 6.3 6.5 6.2 6.1 6.1 6.2 6.2 6.2
6.3 6.2 6.4 6.5 6.6 6.8 6.9 7.0 7.2 7.3 7.1 6.6 6.3 6.4 6.4 6.5 6.9 6.9 6.8 7.0 6.8 7.0 7.2 7.3 7.0 6.7 6.7 6.8 6.9 6.9 7.0 7.0 6.8 6.4 6.5 6.6 6.3 6.4 6.6 6.1 6.7 6.2 6.3 6.0 6.1 6.1 6.1
6.3 6.2 6.3 6.4 6.6 7.0 7.1 7.2 7.2 7.0 6.8 6.3 5.9 6.3 6.3 6.4 6.6 6.4 6.7 7.1 7.2 7.0 6.6 6.8 6.8 6.7 6.7 6.7 6.7 6.8 6.6 6.8 6.3 6.7 6.2 6.1 6.2 6.3 6.0 6.7 6.9 6.8 6.6 6.2 6.1 6.1 6.0
6.2 6.2 6.2 6.1 6.3 6.9 7.2 7.5 7.7 7.1 6.6 6.4 6.3 6.4 6.1 6.5 6.2 6.4 6.6 6.7 6.8 6.9 7.1 6.5 6.7 6.7 6.8 6.7 6.8 6.7 6.6 6.5 6.3 6.5 6.6 6.4 6.3 6.2 6.3 6.9 6.8 6.7 7.8 7.1 6.7 7.3 6.6
6.2 6.2 6.0 6.0 6.1 6.8 7.1 7.4 7.8 7.2 6.9 6.8 6.8 6.6 5.9 6.4 6.3 6.5 6.6 6.5 6.5 6.6 6.7 6.6 6.5 6.7 7.0 7.0 6.9 7.0 6.9 6.7 6.8 6.8 7.2 6.7 6.1 6.1 6.1 6.8 6.3 7.4 7.9 7.9 8.0 7.9 8.4
6.2 6.1 6.1 6.1 6.3 6.8 7.1 7.2 7.2 7.0 6.7 6.9 6.5 6.3 6.1 6.3 6.4 6.5 6.5 6.5 6.5 6.6 6.7 6.7 7.0 6.7 6.8 7.2 7.1 7.1 7.5 7.6 7.6 7.9 8.0 7.7 7.1 6.2 6.4 6.7 6.9 7.9 8.2 7.9 8.0 8.2 8.2
6.3 6.3 6.4 6.5 6.5 6.5 6.9 7.2 7.0 6.9 6.8 6.7 6.7 6.2 5.9 5.9 6.3 6.4 6.2 6.2 6.3 6.7 6.8 6.9 7.3 7.2 7.2 7.2 7.6 7.2 7.6 7.7 8.0 7.9 8.2 8.1 7.5 7.1 6.9 6.6 6.3 7.4 8.3 8.0 8.0 8.2 7.6
6.3 6.3 6.5 6.5 6.5 6.6 6.8 7.0 7.1 6.9 6.7 6.5 6.8 6.3 5.8 5.9 6.3 6.2 6.4 6.5 6.7 6.7 6.9 7.1 7.4 7.2 7.2 7.1 7.1 7.3 7.3 7.7 7.7 7.7 7.9 7.4 7.1 6.8 6.9 6.5 6.8 7.5 7.6 7.9 8.4 7.0 7.0
6.5 6.4 6.5 6.4 6.4 6.6 6.8 6.7 6.8 6.9 6.8 6.6 7.1 6.2 6.1 6.5 7.0 6.6 6.6 6.7 6.8 7.1 7.3 7.4 7.4 7.3 7.4 7.0 7.4 7.4 7.3 7.8 7.7 7.6 7.2 7.1 7.0 6.7 6.8 6.7 6.3 8.0 7.6 7.8 7.4 6.7 6.9
6.6 6.5 6.5 6.6 6.8 6.9 7.0 7.0 6.8 6.6 6.5 6.5 6.5 6.4 6.1 6.1 7.0 7.1 7.1 7.0 7.0 7.3 7.1 7.1 7.4 7.4 7.2 7.2 7.3 7.0 7.4 7.6 7.7 7.2 7.1 6.8 7.3 7.4 7.6 7.7 7.7 7.5 7.3 7.4 7.1 6.8 6.9
Wind_Speed
11 12 12 12 12 12 13 14 13 13 13 14 15 18 19 20 21 21 21 22 23 26 25 24 22 23 10 5 13 5 10 9 7 4 7 9 9 8 12 9 11 15 17 17 17 15 14
12 14 14 14 13 13 12 12 14 12 12 14 16 18 19 21 22 22 23 25 27 26 25 24 21 18 5 10 7 7 4 4 8 7 7 9 8 10 11 13 14 10 13 16 12 12 14
11 12 13 15 14 14 15 12 13 13 14 16 17 18 19 23 22 24 24 27 30 28 26 24 21 8 10 22 8 18 15 6 6 4 6 10 15 11 7 11 14 13 14 13 8 10 7
12 14 15 15 15 15 17 15 15 15 16 17 17 18 21 20 22 23 27 29 32 30 28 23 16 6 9 9 16 9 7 9 8 8 7 8 7 4 4 7 8 6 7 8 11 11 12
12 14 15 15 15 16 17 18 17 18 17 17 17 17 19 21 24 26 29 33 37 35 25 17 4 5 10 12 4 9 10 7 8 7 8 10 5 4 6 4 5 3 6 15 11 9 13
16 14 15 16 17 17 18 19 19 18 16 17 16 16 19 21 24 28 31 37 38 20 9 8 7 4 9 6 1 1 3 2 3 5 6 8 3 4 2 2 8 6 9 10 14 19 17
17 15 15 17 17 17 17 19 20 19 18 16 16 17 19 22 25 29 21 7 4 3 4 8 11 7 8 10 9 8 9 6 4 4 6 5 4 6 7 9 12 13 16 17 15 17 17
16 17 16 16 16 18 19 21 22 21 18 15 15 17 20 21 26 29 12 3 4 5 11 17 26 25 22 12 11 11 7 4 6 7 7 5 11 9 8 11 13 10 17 20 18 23 17
16 15 16 17 18 20 21 21 19 18 18 16 14 16 19 20 27 15 5 10 7 7 5 14 17 12 11 14 10 14 11 6 6 9 8 9 3 8 3 9 12 14 17 18 20 27 20
13 15 16 17 18 18 18 18 20 19 17 16 15 16 17 20 10 8 6 15 18 4 4 7 7 7 9 3 6 14 11 12 6 8 6 8 8 6 4 8 6 16 13 16 20 19 8
16 17 18 20 19 17 16 18 19 20 19 17 16 15 16 11 7 4 9 21 16 1 4 10 8 7 8 7 1 4 1 5 8 8 6 5 5 2 5 10 9 11 7 12 12 15 13
18 18 19 19 16 16 16 16 16 16 17 20 20 13 14 10 3 9 17 15 3 3 7 6 6 7 8 9 5 6 5 1 6 5 8 5 4 6 3 1 2 6 9 8 10 8 6
18 18 17 17 17 19 19 19 18 18 20 18 14 14 11 11 5 18 17 6 3 5 10 8 5 12 13 7 15 10 9 5 4 4 5 4 6 5 5 3 2 3 9 3 5 5 7
19 20 19 18 19 19 21 20 20 18 18 16 14 21 11 12 16 14 6 3 8 9 9 4 4 3 5 9 10 10 9 6 8 3 2 5 5 11 9 9 7 5 3 3 4 3 2
19 19 19 20 20 20 19 19 19 18 17 12 11 8 6 11 19 4 4 5 4 4 9 10 3 1 6 12 3 2 10 7 4 9 5 2 6 2 10 7 11 3 7 6 6 3 2
21 21 20 20 21 21 21 18 20 16 17 14 3 5 11 18 15 3 5 9 9 9 15 14 5 6 8 9 4 0 0 5 3 5 3 2 5 6 7 6 12 11 1 2 3 3 3
20 21 20 21 21 22 21 19 17 16 14 6 2 3 5 17 5 3 7 7 11 16 15 9 7 9 11 11 7 3 4 3 7 6 3 5 7 5 8 6 11 6 9 4 4 4 2
22 21 20 21 21 21 19 18 16 13 9 1 1 3 3 5 5 2 6 4 8 16 17 10 8 6 9 12 6 6 3 5 6 3 4 4 4 4 9 10 11 13 13 13 2 2 4
20 20 21 21 20 19 19 16 16 11 6 1 2 4 2 4 5 5 3 12 16 18 16 7 7 8 7 9 5 5 7 9 6 4 3 3 3 4 5 3 5 5 12 16 7 7 3
22 21 22 21 20 19 18 17 17 12 6 3 3 3 2 4 2 3 8 11 14 11 14 16 13 13 11 8 8 5 8 1 6 4 8 4 2 2 6 4 1 4 9 12 12 3 4
22 23 21 21 20 18 19 19 17 12 9 3 2 4 3 3 2 5 7 6 6 12 14 13 7 12 12 8 7 6 8 7 2 3 6 6 5 4 9 12 8 7 8 6 11 12 6
24 23 23 22 21 23 24 20 19 16 11 2 2 2 3 5 8 8 9 4 13 14 11 10 8 8 9 7 7 8 5 6 3 6 7 6 5 5 8 10 13 7 9 8 3 3 8
25 25 24 23 24 25 24 16 17 21 17 3 3 5 1 5 6 3 5 7 9 11 9 9 10 10 12 6 6 8 1 3 1 1 4 4 4 3 4 8 6 5 9 10 12 16 14
27 26 25 25 26 24 22 20 20 24 24 4 4 2 2 5 4 7 14 11 11 12 9 7 4 4 4 4 5 5 5 6 7 7 6 4 6 3 3 7 5 6 6 10 12 8 9
27 25 25 27 25 23 22 20 18 26 28 7 3 2 2 3 6 12 14 11 7 7 6 6 6 4 4 5 1 5 4 4 6 13 11 8 4 2 2 3 9 14 2 3 1 3 7
26 27 27 27 24 21 18 17 15 15 28 11 8 4 2 2 5 12 12 8 5 5 6 7 4 4 4 1 3 3 4 5 4 5 18 14 6 5 2 4 5 10 5 9 2 3 11
27 29 28 26 24 21 19 17 15 16 26 12 4 10 4 3 6 7 3 5 6 8 4 3 3 3 1 2 1 3 3 4 3 4 2 10 5 12 7 4 7 4 4 6 4 2 10
28 28 26 25 24 23 21 20 18 17 25 15 8 7 9 3 7 7 9 8 6 3 2 5 3 1 1 1 2 4 2 4 3 2 8 7 7 5 4 4 7 7 3 3 3 8 12
29 27 26 25 26 23 22 22 22 19 23 29 5 11 7 4 3 2 8 8 8 10 5 1 3 3 1 2 1 3 2 3 3 3 8 3 4 4 7 6 3 10 12 10 9 11 13
Wind_Direction
334 332 335 343 327 312 317 327 333 330 334 331 331 331 327 324 321 319 314 307 302 302 304 305 311 316 329 259 251 215 188 172 159 180 217 222 222 234 240 227 236 240 248 254 255 253 260
329 328 326 326 326 332 317 316 318 326 328 324 323 320 320 318 316 315 310 304 299 297 299 301 304 313 241 255 258 263 352 210 218 175 208 235 235 240 267 240 242 245 252 259 260 264 256
330 333 336 329 325 321 312 307 304 310 313 313 319 319 320 317 315 312 309 301 297 297 296 300 299 286 256 244 290 307 305 264 277 260 258 224 232 242 279 260 260 272 273 277 275 262 274
326 327 325 321 326 327 324 311 302 305 310 309 314 318 319 321 313 310 305 300 297 295 293 293 289 253 254 258 260 289 286 295 272 270 276 292 295 286 277 304 310 299 306 274 264 271 273
320 320 321 323 325 324 324 324 321 301 307 314 312 320 319 318 313 309 307 307 298 289 283 274 239 224 260 303 223 242 226 240 273 277 261 275 310 262 315 327 317 297 259 270 280 252 244
317 307 316 316 314 313 313 311 315 318 306 314 308 319 319 317 315 313 314 311 291 287 254 222 241 233 261 234 181 43 311 169 273 223 275 211 246 225 326 211 236 240 262 264 256 266 264
315 313 308 311 312 313 316 317 318 310 305 315 308 315 318 318 317 317 325 335 23 34 271 233 206 225 286 313 357 321 298 187 201 227 208 205 184 211 210 239 250 266 273 271 281 283 293
318 318 314 314 313 313 314 314 314 315 309 306 304 316 320 322 319 315 309 273 63 224 297 263 257 259 265 300 287 287 306 279 186 219 203 249 221 210 227 253 263 291 290 281 288 282 289
315 319 319 314 311 312 314 313 315 316 318 310 310 316 318 324 319 309 287 278 342 62 278 285 236 229 232 213 239 257 228 243 252 209 231 207 191 180 250 242 258 256 269 279 293 285 294
312 319 316 314 314 313 316 319 315 312 314 314 314 311 313 327 311 326 281 343 338 85 290 267 202 212 165 165 226 231 199 199 222 233 226 227 235 200 248 266 226 249 255 300 307 334 277
315 315 316 309 309 313 314 314 313 313 309 308 302 303 306 318 296 293 314 326 325 51 296 153 132 124 179 186 27 172 127 198 220 229 192 241 126 125 235 254 212 255 300 290 320 300 301
305 307 311 305 305 309 306 307 311 310 310 310 293 296 307 307 239 257 295 313 312 227 249 186 133 172 175 207 242 139 169 275 203 239 280 254 195 178 190 159 150 358 284 290 320 281 246
307 307 306 306 301 304 302 299 298 299 304 310 299 298 294 278 269 313 321 318 242 233 300 158 185 175 199 207 222 168 164 171 173 138 240 309 250 162 120 106 183 311 275 174 206 205 232
302 303 301 301 299 303 304 298 298 301 302 293 304 315 273 260 267 278 308 255 232 260 266 87 126 149 246 246 221 181 172 170 210 220 56 181 301 206 180 189 192 186 194 215 216 204 287
301 303 303 297 297 301 302 299 299 294 300 276 310 284 256 252 245 238 259 222 230 259 331 353 359 254 267 265 188 61 193 206 167 168 174 210 245 299 198 170 179 208 221 213 296 358 271
300 299 298 301 298 298 300 298 293 296 302 299 275 280 260 249 208 187 221 232 248 297 347 338 330 347 349 337 164 241 160 356 75 55 70 343 292 266 201 165 196 206 160 185 150 262 214
298 296 297 296 295 296 297 293 290 288 294 330 312 271 260 205 124 197 221 232 265 284 296 332 336 331 334 343 358 24 57 17 18 48 86 283 207 268 356 195 170 210 234 199 227 228 275
292 292 294 293 295 294 297 293 289 285 291 139 245 247 325 130 179 201 234 202 282 289 315 309 311 292 296 319 326 332 24 90 49 18 35 43 293 249 245 257 201 183 231 205 252 190 200
292 292 289 290 293 292 295 295 297 278 225 96 238 255 303 38 214 207 226 230 250 278 283 289 295 304 283 300 326 339 336 119 88 53 98 344 342 315 298 62 39 227 216 216 240 281 248
291 290 293 292 289 287 289 286 282 275 223 136 285 317 261 136 268 298 228 247 241 255 260 269 290 308 298 293 279 286 302 270 139 138 156 110 249 276 296 320 307 294 235 246 215 218 230
290 291 291 291 290 287 287 283 279 263 219 123 265 263 99 315 235 237 257 284 263 284 263 244 261 262 280 290 295 291 294 312 221 222 174 159 217 243 287 292 266 259 277 233 231 238 225
289 290 290 288 287 288 287 277 261 250 212 157 259 221 325 286 273 298 241 243 260 275 270 305 302 314 301 269 260 277 354 349 73 354 353 335 269 276 298 279 281 271 250 173 246 231 269
284 287 287 287 287 287 283 256 253 243 204 188 201 295 61 284 318 284 225 287 266 259 289 265 272 306 291 332 333 310 305 206 245 153 335 336 314 329 278 296 329 284 236 218 217 177 225
288 285 283 286 289 285 279 268 231 241 208 172 222 159 163 267 277 284 300 290 300 301 313 279 149 267 348 20 344 298 291 248 192 231 208 254 303 292 283 320 259 240 257 223 228 239 233
284 284 287 290 286 281 279 273 239 228 214 203 203 206 201 257 263 284 291 296 282 267 285 274 265 281 123 44 69 301 289 292 233 217 227 210 205 271 224 265 299 313 129 12 247 22 8
282 285 289 287 283 279 275 267 264 228 210 202 214 201 221 259 241 261 284 315 342 310 291 267 61 86 74 42 120 239 222 215 221 239 208 210 194 182 307 263 226 226 317 335 304 84 27
282 285 285 282 279 275 267 261 254 233 210 198 207 199 196 244 261 286 288 335 331 346 315 334 69 5 120 131 108 225 256 262 245 254 230 195 193 216 213 235 284 296 323 319 145 99 61
282 281 279 276 274 271 268 258 252 242 211 194 211 199 199 224 261 277 282 288 290 288 323 337 14 37 263 130 174 234 222 254 223 175 289 194 184 188 184 210 246 323 339 109 136 53 66
279 276 274 270 271 266 267 256 249 234 213 192 204 203 199 220 246 341 269 257 248 260 287 359 331 339 263 243 289 336 319 304 344 277 193 241 176 177 171 204 96 23 63 99 97 84 57